Weather reports worldwide

Advertisment
St. James's Park, United Kingdom (3770): temperature & dewpoint: 17.09.2020 02:00:00 - 23.09.2020 02:00:00 (BST)St. James's Park, United Kingdom (3770): temperature -20cm & temperature -100cm: 17.09.2020 02:00:00 - 23.09.2020 02:00:00 (BST)St. James's Park, United Kingdom (3770): precipitation: 17.09.2020 02:00:00 - 23.09.2020 02:00:00 (BST)
Date & Time tt [°C] td [°C] tt -20cm [°C] tt -100cm [°C] rr [mm]
23.09.2020 02:00:00 - - - - -
23.09.2020 01:00:00 16,6 13,4 - - 0,0
23.09.2020 00:00:00 17,0 14,0 - - 0,0
22.09.2020 23:00:00 17,9 14,0 - - 0,0
22.09.2020 22:00:00 18,1 14,1 - - 0,0
22.09.2020 21:00:00 18,3 14,4 - - 0,0
22.09.2020 20:00:00 18,7 14,3 - - 0,0
22.09.2020 19:00:00 19,3 14,0 - - 0,0
22.09.2020 18:00:00 20,3 13,9 - - 0,0
22.09.2020 17:00:00 21,7 13,5 - - 0,0
22.09.2020 16:00:00 24,8 11,1 - - 0,0
22.09.2020 15:00:00 25,0 10,3 - - 0,0
22.09.2020 14:00:00 24,5 10,7 - - 0,0
22.09.2020 13:00:00 24,0 10,9 - - 0,0
22.09.2020 12:00:00 23,7 10,1 - - 0,0
22.09.2020 11:00:00 22,3 10,1 - - 0,0
22.09.2020 10:00:00 18,7 13,1 17,7 18,0 0,0
22.09.2020 09:00:00 16,8 13,3 - - 0,0
22.09.2020 08:00:00 13,2 12,4 - - 0,0
22.09.2020 07:00:00 12,7 11,9 - - 0,0
22.09.2020 06:00:00 12,6 11,6 - - 0,0
22.09.2020 05:00:00 12,9 11,5 - - 0,0
22.09.2020 04:00:00 13,2 11,3 - - 0,0
22.09.2020 03:00:00 13,5 11,2 - - 0,0
22.09.2020 02:00:00 13,9 11,1 - - 0,0
22.09.2020 01:00:00 13,9 10,8 - - 0,0
22.09.2020 00:00:00 14,3 10,5 - - 0,0
21.09.2020 23:00:00 14,9 11,1 - - 0,0
21.09.2020 22:00:00 15,4 11,0 - - 0,0
21.09.2020 21:00:00 16,2 12,0 - - 0,0
21.09.2020 20:00:00 17,3 12,5 - - 0,0
21.09.2020 19:00:00 19,4 11,2 - - 0,0
21.09.2020 18:00:00 21,8 9,9 - - 0,0
21.09.2020 17:00:00 23,4 8,8 - - 0,0
21.09.2020 16:00:00 23,9 8,6 - - 0,0
21.09.2020 15:00:00 22,3 9,7 - - 0,0
21.09.2020 14:00:00 21,0 10,2 - - 0,0
21.09.2020 13:00:00 19,3 12,2 - - 0,0
21.09.2020 12:00:00 16,5 12,9 - - 0,0
21.09.2020 11:00:00 14,9 12,6 - - 0,0
21.09.2020 10:00:00 14,9 12,9 - - 0,0
21.09.2020 09:00:00 14,2 12,8 - - 0,0
21.09.2020 08:00:00 14,2 13,0 - - 0,0
21.09.2020 07:00:00 14,1 13,0 - - 0,0
21.09.2020 06:00:00 14,1 12,6 - - 0,0
21.09.2020 05:00:00 14,6 12,5 - - 0,0
21.09.2020 04:00:00 15,0 12,6 - - 0,0
21.09.2020 03:00:00 15,3 12,7 - - 0,0
21.09.2020 02:00:00 15,4 12,9 - - 0,0
21.09.2020 01:00:00 15,6 12,7 - - 0,0
21.09.2020 00:00:00 16,0 12,4 - - 0,0
20.09.2020 23:00:00 17,0 11,8 - - 0,0
20.09.2020 22:00:00 18,1 11,2 - - 0,0
20.09.2020 21:00:00 18,8 10,8 - - 0,0
20.09.2020 20:00:00 19,8 9,2 - - 0,0
20.09.2020 19:00:00 21,0 8,6 - - 0,0
20.09.2020 18:00:00 23,5 9,3 - - 0,0
20.09.2020 17:00:00 24,5 9,8 - - 0,0
20.09.2020 16:00:00 25,0 9,6 - - 0,0
20.09.2020 15:00:00 24,4 10,0 - - 0,0
20.09.2020 14:00:00 24,2 11,0 - - 0,0
20.09.2020 13:00:00 23,8 11,7 - - 0,0
20.09.2020 12:00:00 21,6 11,4 - - 0,0
20.09.2020 11:00:00 20,0 12,3 - - 0,0
20.09.2020 10:00:00 17,8 12,7 - - 0,0
20.09.2020 09:00:00 16,1 13,0 - - 0,0
20.09.2020 08:00:00 14,9 12,7 - - 0,0
20.09.2020 07:00:00 14,4 12,4 - - 0,0
20.09.2020 06:00:00 14,3 12,1 - - 0,0
20.09.2020 05:00:00 14,3 12,1 - - 0,0
20.09.2020 04:00:00 14,4 11,9 - - 0,0
20.09.2020 03:00:00 14,6 11,7 - - 0,0
20.09.2020 02:00:00 15,0 11,7 - - 0,0
20.09.2020 01:00:00 15,5 11,8 - - 0,0
20.09.2020 00:00:00 16,2 11,8 - - 0,0
19.09.2020 23:00:00 16,7 11,3 - - 0,0
19.09.2020 22:00:00 17,5 10,4 - - 0,0
19.09.2020 21:00:00 18,8 9,7 - - 0,0
19.09.2020 20:00:00 19,9 8,2 - - 0,0
19.09.2020 19:00:00 21,4 7,4 - - 0,0
19.09.2020 18:00:00 22,7 7,8 - - 0,0
19.09.2020 17:00:00 23,6 7,9 - - 0,0
19.09.2020 16:00:00 24,3 7,8 - - 0,0
19.09.2020 15:00:00 23,9 8,0 - - 0,0
19.09.2020 14:00:00 24,9 8,1 - - 0,0
19.09.2020 13:00:00 24,0 9,0 - - 0,0
19.09.2020 12:00:00 21,9 11,2 - - 0,0
19.09.2020 11:00:00 20,2 11,9 - - 0,0
19.09.2020 10:00:00 17,7 12,6 17,7 18,2 0,0
19.09.2020 09:00:00 16,1 12,3 - - 0,0
19.09.2020 08:00:00 14,8 12,1 - - 0,0
19.09.2020 07:00:00 13,9 11,3 - - 0,0
19.09.2020 06:00:00 13,7 11,1 - - 0,0
19.09.2020 05:00:00 13,9 10,9 - - 0,0
19.09.2020 04:00:00 14,8 11,3 - - 0,0
19.09.2020 03:00:00 14,8 11,0 - - 0,0
19.09.2020 02:00:00 14,8 10,9 - - 0,0
19.09.2020 01:00:00 15,2 10,7 - - 0,0
19.09.2020 00:00:00 15,1 10,7 - - 0,0
18.09.2020 23:00:00 15,6 10,7 - - 0,0
18.09.2020 22:00:00 16,2 11,0 - - 0,0
18.09.2020 21:00:00 16,9 11,0 - - 0,0
18.09.2020 20:00:00 17,4 11,0 - - 0,0
18.09.2020 19:00:00 18,2 10,3 - - 0,0
18.09.2020 18:00:00 19,6 8,3 - - 0,0
18.09.2020 17:00:00 20,7 8,3 - - 0,0
18.09.2020 16:00:00 20,9 8,3 - - 0,0
18.09.2020 15:00:00 20,7 7,6 - - 0,0
18.09.2020 14:00:00 21,1 8,1 - - 0,0
18.09.2020 13:00:00 20,4 8,6 - - 0,0
18.09.2020 12:00:00 19,9 9,2 - - 0,0
18.09.2020 11:00:00 18,5 11,1 - - 0,0
18.09.2020 10:00:00 16,1 10,8 17,9 18,2 0,0
18.09.2020 09:00:00 13,5 9,2 - - 0,0
18.09.2020 08:00:00 12,2 8,6 - - 0,0
18.09.2020 07:00:00 11,4 8,3 - - 0,0
18.09.2020 06:00:00 12,0 8,4 - - 0,0
18.09.2020 05:00:00 12,0 8,4 - - 0,0
18.09.2020 04:00:00 12,4 8,7 - - 0,0
18.09.2020 03:00:00 12,8 9,1 - - 0,0
18.09.2020 02:00:00 13,3 8,9 - - 0,0
18.09.2020 01:00:00 14,1 9,2 - - 0,0
18.09.2020 00:00:00 14,2 9,2 - - 0,0
17.09.2020 23:00:00 14,5 9,3 - - 0,0
17.09.2020 22:00:00 14,9 9,1 - - 0,0
17.09.2020 21:00:00 15,8 9,1 - - 0,0
17.09.2020 20:00:00 16,0 8,7 - - 0,0
17.09.2020 19:00:00 17,6 7,2 - - 0,0
17.09.2020 18:00:00 19,7 5,8 - - 0,0
17.09.2020 17:00:00 20,9 5,3 - - 0,0
17.09.2020 16:00:00 21,6 6,0 - - 0,0
17.09.2020 15:00:00 20,9 9,7 - - 0,0
17.09.2020 14:00:00 21,9 9,8 - - 0,0
17.09.2020 13:00:00 21,0 9,3 - - 0,0
17.09.2020 12:00:00 19,6 10,6 - - 0,0
17.09.2020 11:00:00 18,3 11,0 - - 0,0
17.09.2020 10:00:00 16,0 10,5 18,7 18,0 0,0
17.09.2020 09:00:00 14,7 10,1 - - 0,0
17.09.2020 08:00:00 13,8 10,0 - - 0,0
17.09.2020 07:00:00 13,7 10,0 - - 0,0
17.09.2020 06:00:00 14,1 10,2 - - 0,0
17.09.2020 05:00:00 14,3 10,2 - - 0,0
17.09.2020 04:00:00 14,6 10,2 - - 0,0
17.09.2020 03:00:00 15,1 10,3 - - 0,0
17.09.2020 02:00:00 15,5 11,1 - - 0,0

tt = temperature
td = dewpoint
tt -20cm = temperature -20cm
tt -100cm = temperature -100cm
rr = precipitation

Next stations